Skip Page Navigation
NASA JPL Caltech
NASA Logo - Jet Propulsion Laboratory + View the NASA Portal
+ Near-Earth Object (NEO) Program
Search JPL
JPL Home Earth Solar System Stars & Galaxies Technology
JPL Solar System Dynamics
BODIES ORBITS EPHEMERIDES TOOLS PHYSICAL DATA DISCOVERY FAQ SITE MAP
JPL Small-Body Database Browser
Search: [ help ]  
342866 (2008 YU32)
Classification: Apollo [NEO, PHA]          SPK-ID: 2342866
Ephemeris | Orbit Diagram | Orbital Elements | Physical Parameters | Discovery Circumstances | Close-Approach Data ]

[ hide orbit diagram ]
Orbit Diagram
Note: Make sure you have Java enabled on your browser to see the applet. This applet is provided as a 3D orbit visualization tool. The applet was implemented using 2-body methods, and hence should not be used for determining accurate long-term trajectories (over several years or decades) or planetary encounter circumstances. For accurate long-term ephemerides, please instead use our Horizons system.
Orbit Viewer

Additional Notes: the orbits shown in the applet are color coded. The planets are white lines, and the asteroid/comet is a blue line. The bright white line indicates the portion of the orbit that is above the ecliptic plane, and the darker portion is below the ecliptic plane. Likewise for the asteroid/comet orbit, the light blue indicates the portion above the ecliptic plane, and the dark blue the portion below the ecliptic plane.

Orbit Viewer applet originally written and kindly provided by Osamu Ajiki (AstroArts), and further modified by Ron Baalke (JPL).


Orbital Elements at Epoch 2456400.5 (2013-Apr-18.0) TDB
Reference: JPL 34 (heliocentric ecliptic J2000)
 Element Value Uncertainty (1-sigma)   Units 
e .595538380976695 8.3428e-08  
a 1.536969835718695 5.1542e-08 AU
q .6216453081447666 1.3836e-07 AU
i 3.408845078408354 1.6566e-05 deg
node 232.8255153215648 7.0928e-05 deg
peri 83.69388408088807 7.4233e-05 deg
M 130.6385840590704 3.2593e-05 deg
tp 2456147.939512595362
(2012-Aug-08.43951260)
5.1288e-05 JED
period 695.9794927397401
1.91
3.5009e-05
9.585e-08
d
yr
n .517256619994436 2.6019e-08 deg/d
Q 2.452294363292624 8.2237e-08 AU
  Orbit Determination Parameters
   # obs. used (total)      149  
   data-arc span      1436 days (3.93 yr)  
   first obs. used      2008-12-31  
   last obs. used      2012-12-06  
   planetary ephem.      DE405  
   SB-pert. ephem.      SB405-CPV-2  
   condition code      0  
   fit RMS      .48034  
   data source      ORB  
   producer      Otto Matic  
   solution date      2013-Apr-29 15:41:53  

Additional Information
 Earth MOID = .0065767 AU 
 T_jup = 4.257 
[ show covariance matrix ]

Ephemeris | Orbit Diagram | Orbital Elements | Physical Parameters | Discovery Circumstances | Close-Approach Data ]

Physical Parameter Table
Parameter Symbol Value Units Sigma Reference Notes
absolute magnitude H 20.002 mag .60375 34 autocmod 2.5c

342866 (2008 YU32)          Discovered 2008-Dec-31 by Mt. Lemmon Survey at Mount Lemmon (G96)
Reference: 20121029/Numbers.arcLast Updated: 2012-11-08

[ show close-approach data ]
Ephemeris | Orbit Diagram | Orbital Elements | Physical Parameters | Discovery Circumstances | Close-Approach Data ]
ABOUT SSD CREDITS/AWARDS PRIVACY/COPYRIGHT GLOSSARY LINKS
FirstGov 2013-Jun-20 03:06 UT
(server date/time)  
NASA Home Page
Site Manager:   Donald K. Yeomans
Webmaster  Alan B. Chamberlin